User: anonymous   Login
Location: *
(90.0000°N, 180.0000°W)
Time: 19:10:29
(UTC+01:00)
Language:

Cosmos 1825 - Orbit

View from above orbital plane
View from above orbital plane
View from above satellite
View from above satellite

Ground track
Ground track

The orbit data is extracted from the following two-line orbital elements,

1 17566U 87024A   17019.52404067  .00000714  00000-0  33189-4 0  9992
2 17566  82.5046  77.5177 0004506  35.4031 324.7501 15.18386172631281
Epoch (UTC): 19 January 2017 12:34:37
Eccentricity: 0.0004506
inclination: 82.5046°
perigee height: 507 km
apogee height: 514 km
right ascension of ascending node: 77.5177°
argument of perigee: 35.4031°
revolutions per day: 15.18386172
mean anomaly at epoch: 324.7501°
orbit number at epoch: 63128

The dashed part of the orbit path shows where the satellite is in the earth's shadow,  

DLR